TimeCDT,TemperatureF,Dew PointF,Humidity,Sea Level PressureIn,VisibilityMPH,Wind Direction,Wind SpeedMPH,Gust SpeedMPH,PrecipitationIn,Events,Conditions,WindDirDegrees,DateUTC
12:52 AM,51.1,37.9,61,29.92,10.0,WSW,3.5,-,N/A,,Clear,240,2012-09-21 05:52:00
1:52 AM,50.0,37.9,63,29.92,10.0,WSW,3.5,-,N/A,,Clear,250,2012-09-21 06:52:00
2:52 AM,51.1,37.0,59,29.91,10.0,Calm,Calm,-,N/A,,Clear,0,2012-09-21 07:52:00
3:52 AM,46.0,39.0,76,29.90,10.0,Calm,Calm,-,N/A,,Clear,0,2012-09-21 08:52:00
4:52 AM,48.9,39.0,69,29.89,10.0,Calm,Calm,-,N/A,,Clear,0,2012-09-21 09:52:00
5:52 AM,50.0,37.9,63,29.89,10.0,Calm,Calm,-,N/A,,Mostly Cloudy,0,2012-09-21 10:52:00
6:52 AM,48.0,39.9,74,29.89,10.0,SW,5.8,-,N/A,,Partly Cloudy,220,2012-09-21 11:52:00
7:52 AM,51.1,39.9,66,29.89,10.0,SW,5.8,-,N/A,,Overcast,220,2012-09-21 12:52:00
8:52 AM,54.0,39.9,59,29.90,10.0,SW,8.1,-,0.00,Rain,Light Rain,230,2012-09-21 13:52:00
9:52 AM,55.9,41.0,57,29.92,10.0,SW,6.9,-,0.00,Rain,Light Rain,230,2012-09-21 14:52:00
10:52 AM,55.9,44.1,64,29.91,10.0,SW,5.8,-,0.00,Rain,Light Rain,230,2012-09-21 15:52:00
11:52 AM,54.0,46.9,77,29.93,6.0,Variable,5.8,-,0.01,Rain,Light Rain,0,2012-09-21 16:52:00
12:52 PM,55.0,50.0,83,29.90,10.0,Variable,4.6,-,0.01,,Mostly Cloudy,0,2012-09-21 17:52:00
1:52 PM,54.0,48.0,80,29.88,9.0,Variable,4.6,-,0.01,Rain,Light Rain,0,2012-09-21 18:52:00
2:52 PM,52.0,48.0,86,29.86,10.0,NW,5.8,-,0.01,,Overcast,310,2012-09-21 19:52:00
3:22 PM,50.0,48.2,94,29.85,1.8,NW,5.8,-,0.06,Rain,Heavy Rain,320,2012-09-21 20:22:00
3:52 PM,50.0,48.0,93,29.86,3.0,SW,3.5,-,0.16,Rain,Rain,220,2012-09-21 20:52:00
4:13 PM,50.0,48.2,94,29.85,5.0,SSW,5.8,-,0.02,Rain,Light Rain,200,2012-09-21 21:13:00
4:52 PM,51.1,48.9,92,29.83,4.0,SSW,10.4,-,0.07,Rain,Rain,200,2012-09-21 21:52:00
5:52 PM,51.1,48.9,92,29.81,10.0,SSW,4.6,-,0.02,Rain,Light Rain,210,2012-09-21 22:52:00
6:52 PM,51.1,50.0,96,29.81,10.0,SSW,5.8,-,0.00,Rain,Light Rain,200,2012-09-21 23:52:00
7:52 PM,51.1,48.9,92,29.81,10.0,SSW,4.6,-,0.01,,Overcast,200,2012-09-22 00:52:00
8:52 PM,51.1,48.9,92,29.81,10.0,SW,4.6,-,N/A,,Overcast,230,2012-09-22 01:52:00
9:52 PM,51.1,48.9,92,29.80,9.0,SW,4.6,-,N/A,,Overcast,220,2012-09-22 02:52:00
10:52 PM,50.0,48.0,93,29.80,8.0,Variable,3.5,-,N/A,,Mostly Cloudy,0,2012-09-22 03:52:00
11:52 PM,50.0,48.0,93,29.79,6.0,Calm,Calm,-,N/A,,Overcast,0,2012-09-22 04:52:00